Wind_Speed
12 11 8 13 17 18 13 14 11 23 20 29 24 22 21 21 18 20 18 15 10 11 12 15 18 22 24 24 26 29 30 29 29 29 28 26 26 22 23 23 25 21 20 16
6 9 9 12 17 19 18 19 18 22 22 25 26 22 21 18 18 19 19 17 16 13 13 14 22 24 28 30 29 30 29 29 30 35 35 32 29 22 20 19 19 20 18 16
11 8 9 10 20 19 19 19 15 15 19 22 25 25 20 19 20 19 19 19 18 17 13 18 25 29 31 31 34 32 29 29 29 30 31 31 28 26 21 21 22 19 17 15
10 12 12 11 14 17 19 18 16 18 18 22 24 23 20 19 16 17 17 14 15 13 13 17 22 27 25 26 29 32 31 31 33 34 34 33 32 31 28 24 22 19 18 16
6 12 15 17 15 6 6 15 11 18 20 23 21 13 22 8 8 12 12 14 15 20 19 17 21 24 27 27 27 29 30 34 34 37 38 37 35 34 31 27 21 19 18 17
7 11 12 14 17 13 9 15 20 21 19 11 6 8 12 10 11 15 12 12 13 19 16 11 15 24 28 28 29 28 28 30 35 37 37 35 34 32 28 25 21 19 17 16
12 10 8 16 19 2 8 12 12 6 10 15 15 12 18 19 13 9 10 11 9 11 9 4 13 21 23 23 22 23 31 34 37 40 40 36 33 31 27 22 19 18 17 16
7 7 13 14 13 10 10 6 10 14 17 17 18 18 16 15 13 10 9 6 6 10 11 5 11 17 17 17 23 33 35 36 38 36 30 34 33 28 24 20 20 19 18 14
10 10 8 12 15 17 18 19 19 15 19 17 17 16 14 12 9 8 4 2 4 11 12 8 10 17 18 20 29 32 32 28 28 29 32 32 29 25 21 20 20 18 17 14
14 20 26 24 23 20 21 22 19 16 16 13 15 16 13 13 8 4 2 4 6 11 12 13 14 16 20 26 31 31 27 26 28 28 26 23 24 24 24 21 17 16 15 13
21 24 20 22 21 21 24 18 16 14 12 12 14 14 13 10 7 5 7 9 10 10 12 14 15 19 23 26 30 26 26 25 24 24 24 22 21 22 20 18 18 16 15 16
15 22 15 19 17 15 16 19 14 13 14 13 11 10 13 7 4 8 9 12 11 12 12 13 16 19 23 23 28 29 23 21 21 21 20 19 18 15 13 15 15 11 12 15
23 25 22 21 22 23 19 18 17 16 13 15 14 10 5 3 6 9 11 12 12 14 14 15 16 18 21 24 26 25 24 21 20 20 19 20 18 20 18 12 10 11 12 12
16 17 18 19 14 15 13 14 14 12 16 14 13 8 7 7 9 12 7 11 15 16 17 17 20 22 23 23 25 26 23 24 20 18 19 18 17 16 16 17 16 12 12 13
17 16 20 20 17 15 15 14 15 13 12 10 6 6 8 9 9 9 15 16 16 17 16 20 21 21 22 22 24 25 22 21 20 19 18 17 16 15 13 13 12 12 11 9
18 17 18 17 17 16 14 12 13 15 11 7 6 7 8 10 13 15 15 16 17 13 16 20 21 21 22 22 22 21 20 22 21 19 19 17 15 13 12 11 11 10 10 9
17 16 14 12 13 14 14 9 11 15 8 8 8 12 14 16 16 14 12 12 17 20 20 22 23 23 22 21 20 18 18 19 18 17 16 15 14 13 12 11 10 10 9 8
15 17 19 18 11 10 9 9 11 9 9 10 14 15 12 11 11 13 15 17 19 18 18 22 26 24 21 19 18 18 17 17 16 15 15 14 12 11 11 11 10 8 7 8
17 17 17 16 14 12 13 10 8 10 13 17 15 10 13 14 17 18 18 17 16 15 16 23 24 22 20 17 17 17 17 16 15 13 12 13 12 11 11 10 8 7 6 7
16 13 15 15 12 10 7 6 13 12 15 17 16 14 9 13 19 18 16 13 13 10 24 24 23 21 19 17 16 16 15 14 14 12 12 12 11 11 10 10 8 7 8 8
14 14 11 4 4 4 9 14 14 10 15 17 16 11 13 16 21 22 15 8 13 19 24 26 22 20 17 17 15 15 15 13 12 12 12 12 11 10 9 9 8 8 7 6
12 11 8 5 4 7 10 13 15 16 15 14 15 19 18 14 19 14 10 12 17 25 24 21 20 19 18 17 15 16 15 12 11 11 11 11 10 9 10 9 8 7 6 6
9 8 6 5 4 4 11 12 14 16 15 16 18 19 16 18 19 13 7 15 19 25 21 20 21 19 18 17 16 15 13 12 11 11 12 12 9 9 9 8 6 7 6 6
9 8 5 4 8 5 6 4 9 12 15 16 18 23 25 18 10 12 9 22 22 24 20 21 21 19 18 17 16 15 13 12 11 12 13 11 9 9 8 6 6 5 6 7
8 8 4 2 2 2 8 10 13 12 13 11 15 16 16 15 11 18 17 23 22 22 21 21 20 18 17 17 17 16 13 10 11 11 12 10 8 8 6 6 5 5 6 8
6 5 5 4 2 6 7 10 8 13 13 11 9 11 13 16 13 21 21 24 24 22 23 23 21 18 17 17 16 15 14 11 10 9 9 8 7 7 7 6 5 6 7 8
5 3 3 3 2 5 10 11 11 12 13 14 13 16 17 14 21 21 24 25 24 23 22 22 20 18 18 17 15 15 14 11 8 8 8 8 8 8 6 5 5 6 7 8
Wind_Direction
258 272 273 284 285 288 277 263 264 284 279 285 286 288 297 295 296 290 287 296 264 246 230 220 212 201 197 201 195 185 182 181 174 166 168 168 174 171 174 174 174 168 163 162
278 278 260 269 270 276 273 269 268 263 269 272 285 288 288 294 293 285 292 291 280 259 241 216 214 206 194 189 195 186 184 176 171 167 168 170 170 164 171 168 165 168 164 168
266 274 282 264 255 257 260 263 262 267 274 288 290 289 293 295 289 292 289 288 290 282 248 225 213 206 202 194 181 184 179 174 166 160 156 158 161 161 162 170 173 174 168 170
271 288 263 255 260 266 265 270 272 265 269 277 276 290 292 285 293 287 285 288 298 292 276 240 220 212 204 190 184 176 172 166 161 157 154 154 155 164 174 176 174 172 172 173
245 258 274 279 274 255 246 280 259 271 280 281 294 302 285 293 264 308 318 310 306 310 300 274 214 202 187 182 177 174 170 166 164 159 153 152 160 174 178 171 167 169 172 170
226 255 259 267 266 281 280 276 267 272 271 279 324 300 291 319 316 319 325 317 317 330 332 276 206 182 170 172 171 174 170 164 157 153 148 155 170 169 170 170 167 165 163 166
237 251 256 260 270 271 249 277 285 294 323 311 294 277 292 307 309 319 314 324 332 37 27 76 164 167 167 166 166 157 151 148 145 152 160 169 162 167 167 161 157 158 158 164
236 241 260 244 263 227 264 268 280 292 307 304 289 286 288 300 314 316 321 335 358 76 76 92 156 153 150 147 143 144 141 144 151 161 155 157 159 161 160 157 158 157 160 165
232 240 258 275 275 286 283 278 287 293 287 282 291 295 292 297 295 301 292 23 49 94 108 128 157 146 139 134 138 140 142 144 143 144 151 158 153 151 154 163 158 162 167 170
266 264 264 273 286 275 272 269 278 273 264 281 298 299 291 292 281 236 177 150 150 129 133 137 143 138 138 144 144 142 136 136 138 139 142 150 156 158 156 162 164 167 172 177
260 264 268 262 263 266 274 278 270 268 270 268 288 290 293 283 260 200 164 156 158 154 152 142 141 133 142 146 146 135 134 134 135 138 144 148 155 166 168 175 180 177 187 187
253 257 253 272 276 275 278 278 275 276 278 287 271 271 292 289 203 171 159 157 153 150 145 144 144 137 143 151 151 140 134 138 140 144 149 150 146 133 159 173 179 188 197 193
252 262 267 265 273 275 269 273 273 276 273 286 279 270 238 200 182 163 158 162 158 149 141 139 135 132 138 150 151 143 138 144 149 151 152 148 145 147 143 141 154 167 173 175
257 264 269 261 256 262 261 261 271 275 283 282 276 242 199 177 156 136 160 154 147 144 140 142 138 132 148 154 154 152 148 154 153 153 153 153 157 158 158 162 170 172 184 204
268 256 254 265 267 264 264 271 271 275 279 282 242 205 184 174 164 142 151 147 141 138 136 138 135 138 152 156 156 153 153 159 158 157 158 160 160 160 163 168 173 174 174 187
292 281 270 260 262 262 258 256 261 267 263 225 193 175 178 146 130 132 144 147 145 145 144 144 141 144 152 156 153 154 159 163 159 155 155 156 160 163 164 171 174 180 189 199
296 294 285 263 248 244 229 252 262 266 233 185 180 154 148 136 125 128 131 140 144 144 151 150 146 151 158 156 154 153 154 156 158 153 155 162 166 170 173 174 181 191 202 213
290 281 280 275 261 266 245 228 258 218 192 166 148 139 139 143 142 136 135 135 134 137 154 160 153 153 152 155 159 154 153 155 158 159 162 166 170 173 176 184 192 198 212 220
294 287 280 275 267 259 249 232 199 179 143 140 138 146 146 137 139 144 145 139 137 141 155 156 155 152 153 158 160 158 158 158 162 162 165 171 175 178 184 192 200 210 216 216
306 300 286 271 252 223 188 167 144 136 138 140 135 135 130 136 147 147 146 139 152 159 159 161 158 158 158 161 165 163 164 163 163 166 170 176 182 190 195 201 204 214 221 225
326 328 329 19 88 103 130 140 136 134 140 144 149 146 144 145 152 150 139 147 163 163 163 163 163 161 164 166 167 167 167 165 168 172 177 184 189 190 196 202 215 223 227 236
335 338 347 25 69 106 115 125 126 132 136 134 135 136 134 138 150 152 159 160 163 168 165 166 168 173 171 170 170 171 171 172 176 178 180 184 191 199 204 211 224 231 236 240
337 340 350 35 68 91 99 111 131 143 145 151 150 152 155 159 162 157 159 167 165 171 171 172 176 175 174 174 173 174 176 180 184 187 189 192 201 204 207 219 228 239 234 245
344 353 359 13 119 104 102 82 124 140 150 156 160 164 153 149 158 173 166 172 173 172 174 174 173 175 175 175 175 176 179 186 189 190 189 192 200 201 211 228 234 232 240 271
345 343 351 56 101 103 129 136 124 129 134 135 154 165 169 167 165 172 168 170 172 168 168 171 171 171 174 174 175 173 171 171 176 180 186 197 206 211 224 225 224 245 270 282
346 346 337 314 241 163 164 168 155 157 151 144 150 165 170 170 170 166 168 170 167 168 165 167 170 171 172 172 173 176 175 174 177 181 194 201 203 208 203 214 243 265 279 286
329 325 317 318 279 200 183 181 171 172 169 162 153 166 165 165 164 164 165 166 166 167 167 167 168 171 169 170 176 177 176 176 186 188 185 189 192 191 206 237 263 275 286 295
Height
765 766 765 765 760 756 761 757 762 739 740 714 715 715 713 711 708 706 702 700 700 698 698 702 705 704 706 714 718 720 726 734 739 747 757 766 775 781 787 793 797 801 803 809
778 770 769 768 760 756 755 749 747 738 731 715 706 710 706 705 700 698 695 693 691 689 689 693 695 697 695 699 712 716 723 728 736 740 748 759 771 778 791 795 799 802 803 809
776 769 771 773 755 750 741 735 735 734 722 711 705 698 701 698 696 693 689 687 684 679 680 682 683 688 689 691 695 708 716 724 732 740 746 756 766 778 787 793 794 800 803 809
774 770 781 747 735 734 732 728 727 725 717 709 701 695 694 692 693 689 685 684 680 676 672 673 675 682 686 692 698 697 708 719 725 734 743 751 761 772 782 787 791 795 800 806
777 764 751 743 734 729 728 722 719 716 711 703 699 700 683 687 690 689 687 685 682 677 670 666 667 673 679 687 693 699 704 710 721 728 736 745 756 767 774 779 784 791 797 804
769 764 758 729 721 723 727 727 712 709 705 705 702 697 679 683 685 683 684 684 677 671 665 662 665 670 674 680 686 696 702 711 715 726 735 747 756 763 771 777 782 789 797 803
759 757 744 723 718 725 735 719 705 704 705 705 701 694 682 681 680 681 680 679 677 669 669 668 672 675 677 683 688 695 700 708 717 727 734 742 752 761 769 775 783 789 795 803
755 763 754 716 719 726 709 707 707 704 701 702 696 689 686 680 677 679 677 676 676 670 673 677 680 681 684 689 692 696 704 712 720 729 735 742 751 760 769 775 782 789 795 802
740 725 716 714 713 709 710 706 701 704 700 696 691 685 682 679 678 677 677 676 677 672 678 682 686 684 687 693 698 703 709 718 723 730 737 745 751 760 767 776 781 787 792 797
733 719 710 705 705 705 702 699 697 696 692 690 686 682 677 675 675 677 676 678 680 680 682 686 688 687 692 698 701 706 712 720 725 733 739 748 753 760 762 773 778 784 789 794
716 705 706 700 697 696 690 691 691 688 688 686 682 677 674 673 673 675 677 680 682 683 686 687 689 690 696 701 704 709 716 723 730 737 742 748 753 758 762 769 775 781 786 791
708 693 697 689 687 688 688 684 682 682 681 678 676 673 670 670 672 675 676 679 682 684 687 690 692 694 697 704 708 712 719 727 732 737 743 748 755 760 765 772 778 781 784 788
691 686 687 684 681 679 680 679 677 676 674 672 668 668 668 669 671 673 675 678 682 684 687 691 695 698 699 705 710 715 719 727 732 738 744 749 755 761 768 775 779 782 784 786
683 682 675 674 672 669 670 670 670 670 667 665 663 663 664 666 671 671 678 681 683 684 688 693 695 697 702 708 713 717 722 728 734 739 745 751 756 761 767 772 777 780 782 785
673 671 666 662 663 663 663 663 663 662 660 659 659 659 663 664 669 672 676 680 683 686 690 693 696 700 704 710 715 719 725 731 736 741 747 751 756 761 766 771 775 778 780 783
668 663 659 657 655 655 656 658 658 654 654 656 658 659 663 666 670 674 679 682 684 688 692 695 699 703 709 714 718 723 729 734 738 742 747 752 756 761 766 770 773 776 779 781
662 655 651 650 649 648 648 650 652 648 649 652 655 658 663 667 671 678 682 684 686 689 694 698 702 708 713 716 721 726 731 735 739 743 748 753 757 761 765 768 771 774 777 778
658 652 645 642 639 638 639 642 643 644 647 648 654 659 664 666 671 679 683 687 690 694 698 702 705 710 714 719 723 727 731 735 740 744 749 753 756 760 763 767 769 772 774 775
650 643 638 633 630 632 633 635 637 641 644 648 653 659 664 668 673 679 684 687 691 695 700 704 708 712 716 721 724 728 732 736 741 745 748 752 755 759 763 765 767 769 771 772
643 636 628 622 620 623 626 630 634 640 644 648 654 660 665 670 674 679 684 688 692 695 699 705 710 714 718 722 725 729 732 736 740 744 748 752 755 758 761 763 765 767 768 770
642 634 626 620 621 623 626 630 634 640 645 650 654 659 665 671 676 680 686 690 694 697 701 706 710 714 718 722 726 729 732 736 740 743 747 750 753 756 758 761 762 764 765 766
644 638 632 629 629 629 630 633 636 641 646 651 656 661 667 673 677 683 686 688 693 697 702 706 710 714 717 722 725 729 732 736 739 742 745 748 751 754 756 758 760 761 761 762
647 642 638 635 635 635 635 637 641 644 648 653 656 661 665 670 675 680 685 689 692 696 700 705 709 713 718 721 725 728 731 734 737 740 743 746 749 751 753 755 756 757 758 759
649 646 643 641 638 639 641 645 646 649 652 655 658 661 664 671 677 680 682 686 690 695 700 704 709 713 717 720 724 727 730 733 736 739 742 745 747 749 751 752 753 754 755 755
651 648 646 644 644 644 645 647 650 654 657 659 662 665 667 671 673 678 681 686 691 695 700 704 708 712 716 719 723 727 730 732 735 738 741 744 746 747 748 750 751 752 752 752
651 650 649 647 646 647 649 650 649 653 656 661 664 667 669 672 674 678 682 686 691 695 699 704 708 712 715 719 723 726 729 732 735 737 739 741 743 744 746 747 748 749 749 749
651 650 649 649 648 648 648 649 651 652 654 657 661 665 668 671 674 678 682 686 691 695 699 703 707 711 715 718 722 725 729 731 734 736 738 739 741 742 744 745 746 746 746 745